This is the latest recevied weather packets stored in our database for station/object K2ATL. If no packets are shown the sender has not sent any weather packets the latest 10 day(s).
| Time | Temp. | Humidity | Pressure | Rain* | Wind** | Luminosity | Snow |
|---|---|---|---|---|---|---|---|
| 1777505052 | 20.56° C | 84% | 1095.9 hPa | 0 mm | - | 25 W/m² | - |
| 1777504749 | 20.56° C | 83% | 1096 hPa | 0 mm | - | 37 W/m² | - |
| 1777504447 | 20.56° C | 84% | 1096.1 hPa | 0 mm | - | 44 W/m² | - |
| 1777504142 | 20.56° C | 82% | 1096.2 hPa | 0 mm | - | 56 W/m² | - |
| 1777503837 | 21.11° C | 82% | 1096.2 hPa | 0 mm | - | 34 W/m² | - |
| 1777503534 | 21.11° C | 80% | 1096 hPa | 0 mm | - | 33 W/m² | - |
| 1777503230 | 21.11° C | 80% | 1096.3 hPa | 0 mm | - | 66 W/m² | - |
| 1777502928 | 21.11° C | 81% | 1096.3 hPa | 0 mm | - | 72 W/m² | - |
| 1777502625 | 21.11° C | 80% | 1096.4 hPa | 0 mm | - | 72 W/m² | - |
| 1777502322 | 21.11° C | 79% | 1096.3 hPa | 0 mm | - | 97 W/m² | - |
| 1777502018 | 21.11° C | 78% | 1096.2 hPa | 0 mm | - | 94 W/m² | - |
| 1777501715 | 21.11° C | 79% | 1096.2 hPa | 0 mm | - | 91 W/m² | - |
| 1777501413 | 21.11° C | 80% | 1096.1 hPa | 0 mm | - | 112 W/m² | - |
| 1777501110 | 21.67° C | 77% | 1095.8 hPa | 0 mm | - | 105 W/m² | - |
| 1777500808 | 21.67° C | 79% | 1096.2 hPa | 0 mm | - | 150 W/m² | - |
| 1777500505 | 21.11° C | 80% | 1096.1 hPa | 0 mm | - | 175 W/m² | - |
| 1777500201 | 21.11° C | 81% | 1096.2 hPa | 0 mm | - | 123 W/m² | - |
| 1777499898 | 21.67° C | 81% | 1096.2 hPa | 0 mm | - | 121 W/m² | - |
| 1777499595 | 21.67° C | 77% | 1096.2 hPa | 0 mm | - | 171 W/m² | - |
| 1777499292 | 21.11° C | 79% | 1096.2 hPa | 0 mm | - | 172 W/m² | - |
| 1777498989 | 21.11° C | 81% | 1096.1 hPa | 0 mm | - | 135 W/m² | - |
| 1777498685 | 21.11° C | 81% | 1096 hPa | 0 mm | - | 129 W/m² | - |
| 1777498382 | 21.11° C | 80% | 1095.9 hPa | 0 mm | - | 246 W/m² | - |
| 1777498079 | 21.11° C | 81% | 1096.1 hPa | 0 mm | - | 178 W/m² | - |
| 1777497776 | 21.11° C | 81% | 1096.2 hPa | 0 mm | - | 206 W/m² | - |
* Rain latest hour (hover to see other rain measurements)
** Current wind speed in m/s (hover to see current wind gust speed)